Location: Mountain View
(37.3861°N, 122.0839°W)
Time: 03:51:24
(UTC-07:00)

ISS - Visible Passes

Search period start: 30 March 2017 00:00
Search period end: 09 April 2017 00:00
Orbit: 399 x 409 km, 51.6° (Epoch: 30 March)

Date Brightness Start Highest point End Pass type
(mag) Time Alt. Az. Time Alt. Az. Time Alt. Az.
30 Mar -0.9 21:06:50 10° WNW 21:08:44 14° NNW 21:10:39 10° NNE visible
31 Mar -1.4 20:13:34 10° W 20:16:08 21° NNW 20:18:44 10° NNE visible
02 Apr -0.9 20:06:33 10° NW 20:08:07 13° NNW 20:09:42 10° N visible
07 Apr -0.6 22:12:04 10° NNW 22:12:28 12° NNW 22:12:28 12° NNW visible
08 Apr -1.4 21:20:03 10° NNW 21:22:01 15° NNE 21:22:04 15° NNE visible
